This is the latest recevied weather packets stored in our database for station/object DK4MDA-13. If no packets are shown the sender has not sent any weather packets the latest 1 day(s).
| Time | Temp. | Humidity | Pressure | Rain* | Wind** | Luminosity | Snow |
|---|---|---|---|---|---|---|---|
| 1778027828 | 11.11° C | 94% | 1006 hPa | 2.29 mm | - | - | - |
| 1778027528 | 11.11° C | 94% | 1006.1 hPa | 2.29 mm | - | - | - |
| 1778027228 | 11.11° C | 94% | 1006.1 hPa | 2.03 mm | - | - | - |
| 1778026928 | 11.11° C | 94% | 1006.3 hPa | 2.03 mm | - | - | - |
| 1778026628 | 11.11° C | 94% | 1006.2 hPa | 1.78 mm | - | - | - |
| 1778026328 | 11.11° C | 94% | 1006.3 hPa | 1.78 mm | - | - | - |
| 1778026028 | 11.11° C | 94% | 1006.4 hPa | 2.03 mm | - | - | - |
| 1778025128 | 11.11° C | 94% | 1006.6 hPa | 2.03 mm | - | - | - |
| 1778024228 | 11.11° C | 94% | 1006.8 hPa | 2.03 mm | - | - | - |
| 1778023928 | 11.11° C | 94% | 1006.7 hPa | 2.03 mm | - | - | - |
| 1778023628 | 11.11° C | 94% | 1006.8 hPa | 2.29 mm | - | - | - |
| 1778023328 | 11.11° C | 93% | 1006.7 hPa | 2.03 mm | - | - | - |
| 1778022728 | 11.11° C | 93% | 1006.9 hPa | 2.03 mm | - | - | - |
| 1778022428 | 11.11° C | 93% | 1006.8 hPa | 1.78 mm | - | - | - |
| 1778022128 | 11.11° C | 93% | 1006.7 hPa | 2.03 mm | - | - | - |
| 1778021828 | 11.67° C | 93% | 1006.8 hPa | 1.78 mm | - | - | - |
| 1778020628 | 11.67° C | 92% | 1007.1 hPa | 1.02 mm | - | - | - |
| 1778020328 | 11.67° C | 92% | 1007.2 hPa | 0.76 mm | - | - | - |
| 1778019428 | 11.67° C | 92% | 1007.3 hPa | 0.25 mm | - | - | - |
| 1778018528 | 12.22° C | 91% | 1007.3 hPa | 0 mm | - | - | - |
| 1778015828 | 12.22° C | 90% | 1007.4 hPa | 0 mm | - | - | - |
| 1778014628 | 12.22° C | 91% | 1007.5 hPa | 0 mm | - | - | - |
| 1778014028 | 12.22° C | 90% | 1007.5 hPa | 0 mm | - | - | - |
| 1778013728 | 12.22° C | 90% | 1007.5 hPa | 0 mm | - | - | - |
| 1778011928 | 12.78° C | 90% | 1007.6 hPa | 0 mm | - | - | - |
* Rain latest hour (hover to see other rain measurements)
** Current wind speed in m/s (hover to see current wind gust speed)